Weather History for Kodiak, AK

Change the Weather History Date:

Monday, March 11, 2013

  Actual Average Record
Temperature  
Mean Temperature 33 °F 32 °F  
Max Temperature 38 °F 37 °F 49 °F (1987)
Min Temperature 27 °F 27 °F 0 °F (1966)
Degree Days  
Heating Degree Days 32 33  
Month to date heating degree days 331 363  
Since 1 July heating degree days 6252 6236  
Cooling Degree Days 0    
Month to date cooling degree days 0  
Year to date cooling degree days 0  
Moisture  
Dew Point 19 °F    
Average Humidity 0    
Maximum Humidity 0    
Minimum Humidity 0    
Precipitation  
Precipitation 0.00 in 0.18 in 1.44 in (1986)
Month to date precipitation 3.09 1.98  
Year to date precipitation 19.27 16.41  
Snow  
Snow 0.00 in 0.30 in 3.50 in (1969)
Month to date snowfall 4.0 4.2  
Since 1 July snowfall 52.4 53.6  
Snow Depth 0.00 in    
Sea Level Pressure  
Sea Level Pressure 30.25 in    
Wind  
Wind Speed 11 mph (WNW)    
Max Wind Speed 21 mph    
Max Gust Speed 29 mph    
Visibility 10 miles    
Events      
T = Trace of Precipitation, MM = Missing Value Source: NWS Daily Summary

Daily Weather History Graph

Daily Weather History Graph

Search for Another Location

Airport:

Trip Planner

Search our weather history database for the weather conditions in past years. The results will help you decide how hot, cold, wet, or windy it might be!

Date:

Astronomy

Mar. 11, 2013 Rise Set
Actual Time 8:35 AM AKDT 8:05 PM AKDT
Civil Twilight 7:56 AM AKDT 8:44 PM AKDT
Nautical Twilight 7:11 AM AKDT 9:29 PM AKDT
Astronomical Twilight 6:24 AM AKDT 10:17 PM AKDT
Moon 8:07 AM AKDT (3/11) 8:43 PM AKDT (3/11)
Length of Visible Light 12h 47m
Length of Day
11h 29m
New Moon, 0% of the Moon is Illuminated
Mar 11
New Moon
Mar 19
First Quarter
Mar 27
Full
Apr 2
Last Quarter
Apr 10
New

Hourly Weather History & Observations

Time (AKDT) Temp. Windchill Dew Point Humidity Pressure Visibility Wind Dir Wind Speed Gust Speed Precip Events Conditions
12:53 AM 32.0 °F 21.2 °F 19.0 °F 59% 30.25 in 10.0 mi NW 16.1 mph 21.9 mph N/A   Clear
1:53 AM 30.9 °F 19.8 °F 16.0 °F 54% 30.26 in 10.0 mi WNW 16.1 mph 23.0 mph N/A   Clear
2:53 AM 30.0 °F 26.5 °F 18.0 °F 61% 30.28 in 10.0 mi Variable 3.5 mph - N/A   Clear
3:53 AM 30.0 °F 21.7 °F 18.0 °F 61% 30.28 in 10.0 mi West 9.2 mph 16.1 mph N/A   Clear
4:53 AM 28.9 °F 19.8 °F 14.0 °F 54% 30.28 in 10.0 mi West 10.4 mph - N/A   Clear
5:53 AM 28.0 °F 18.6 °F 17.1 °F 63% 30.27 in 10.0 mi WNW 10.4 mph - N/A   Clear
6:53 AM 28.0 °F 17.5 °F 18.0 °F 66% 30.27 in 10.0 mi West 12.7 mph - N/A   Clear
7:53 AM 28.9 °F 18.2 °F 17.1 °F 61% 30.27 in 10.0 mi NW 13.8 mph - N/A   Clear
8:53 AM 28.9 °F 21.1 °F 18.0 °F 64% 30.27 in 10.0 mi WNW 8.1 mph - N/A   Scattered Clouds
9:53 AM 30.0 °F 21.1 °F 18.0 °F 61% 30.27 in 10.0 mi WNW 10.4 mph - N/A   Scattered Clouds
10:53 AM 33.1 °F 24.9 °F 18.0 °F 54% 30.27 in 10.0 mi WNW 10.4 mph - N/A   Scattered Clouds
11:53 AM 33.1 °F 22.6 °F 19.0 °F 56% 30.27 in 10.0 mi WNW 16.1 mph - N/A   Mostly Cloudy
12:53 PM 34.0 °F 25.5 °F 21.0 °F 59% 30.28 in 10.0 mi WNW 11.5 mph 19.6 mph N/A   Mostly Cloudy
1:53 PM 37.0 °F 27.7 °F 21.9 °F 54% 30.28 in 10.0 mi WNW 16.1 mph 24.2 mph N/A   Mostly Cloudy
2:53 PM 37.0 °F 28.9 °F 21.9 °F 54% 30.27 in 10.0 mi WNW 12.7 mph 24.2 mph N/A   Scattered Clouds
3:53 PM 37.0 °F 28.5 °F 21.0 °F 52% 30.25 in 10.0 mi WNW 13.8 mph 24.2 mph N/A   Partly Cloudy
4:53 PM 37.9 °F 30.0 °F 19.9 °F 48% 30.24 in 10.0 mi WNW 12.7 mph 21.9 mph N/A   Partly Cloudy
5:53 PM 37.9 °F 28.2 °F 19.0 °F 47% 30.23 in 10.0 mi WNW 18.4 mph 28.8 mph N/A   Partly Cloudy
6:53 PM 37.0 °F - 19.9 °F 50% 30.23 in 10.0 mi Calm Calm - N/A   Partly Cloudy
7:53 PM 36.0 °F 27.1 °F 17.1 °F 46% 30.21 in 10.0 mi NW 13.8 mph 25.3 mph N/A   Scattered Clouds
8:53 PM 35.1 °F 27.9 °F 19.9 °F 54% 30.21 in 10.0 mi NW 9.2 mph - N/A   Clear
9:53 PM 34.0 °F 25.0 °F 19.9 °F 56% 30.21 in 10.0 mi WNW 12.7 mph - N/A   Clear
10:53 PM 33.1 °F 26.1 °F 19.9 °F 59% 30.20 in 10.0 mi WNW 8.1 mph 17.3 mph N/A   Clear
11:53 PM 33.1 °F 26.1 °F 19.0 °F 56% 30.20 in 10.0 mi WNW 8.1 mph - N/A   Clear